Back to catalog

STARLINK-4767

AliveCommunicationsVLEO
NORAD 53850·PAYLOAD·🇺🇸 United States

Launched Sep 19, 2022 from Cape Canaveral Space Force Station

Loading…

Next Passes (next 24 hours)

TLE

FreshSource: CelesTrak SupGP

Epoch: Sep 14, 2026, 21:32 UTC

1 53850C 22114AJ  26257.89770833 -.00037371  00000+0 -23438-2 0  2579
2 53850  53.1583 163.7221 0001548  96.2345 169.1013 15.08848932    17

Track STARLINK-4767 in real time with AllMySat

Download on the App Store